Flag Weather past 2 weeks in Bruck an der Leitha, Lower Austria, Austria

Now
39 °F

Overcast.


Feels Like: N/A
Forecast: 33 / 39 °F
Wind: N/A

Location: Wien / Schwechat-Flughafen

Current Time: Nov 25, 2014 at 2:01:32 AM

Latest Report: Nov 25, 2014 at 1:00 AM


Visibility: 4 mi

Pressure: 30.35 "Hg

Humidity: 90%

Dew point: 37 °F

Location of Bruck an der LeithaLocation

Historic Weather in Bruck an der Leitha — Graph

°F

Bruck an der Leitha temperature yesterday

Maximum temperature yesterday: 40 °F (at 12:00 AM)
Minimum temperature yesterday: 36 °F (at 3:00 AM)
Average temperature yesterday: 39 °F

Past Weeks' High & Low Weather Summary

 TemperatureHumidityPressure
High64 °F (Nov 11, 1:00 PM)100% (Nov 17, 5:00 AM)30.42 "Hg (Nov 17, 5:00 AM)
Low36 °F (Nov 23, 7:00 AM)66% (Nov 11, 1:00 PM)29.69 "Hg (Nov 16, 6:00 AM)
Average47 °F87%30.02 "Hg
* Reported Midnight between Nov 9 and Nov 10 — Midnight between Nov 24 and Nov 25, Bruck an der Leitha, Weather by CustomWeather, © 2014

Note: Actual official high and low records may vary slightly from our data, if they occured in-between our weather recording intervals... More about our weather records

Advertising

Bruck an der Leitha weather history for previous 24 hours

 ConditionsComfort  
Time TempWeatherWind HumidityBarometerVisibility
12:00 AM
Nov 25
40 °FOvercast.N/A89%30.36 "Hg4 mi
11:00 PM
Nov 24
40 °FOvercast.6 mph88%30.34 "Hg4 mi
10:00 PM40 °FOvercast.N/A86%30.36 "Hg5 mi
9:00 PM40 °FOvercast.3 mph88%30.34 "Hg5 mi
8:00 PM40 °FOvercast.5 mph90%30.34 "Hg4 mi
7:00 PM40 °FOvercast.5 mph90%30.33 "Hg4 mi
6:00 PM39 °FOvercast.5 mph90%30.33 "Hg4 mi
5:00 PM40 °FOvercast.3 mph91%30.33 "Hg4 mi
4:00 PM39 °FOvercast.7 mph91%30.31 "Hg3 mi
3:00 PM39 °FRain showers. Overcast.6 mph91%30.32 "Hg3 mi
2:00 PM40 °FLow clouds.7 mph90%30.32 "Hg3 mi
1:00 PM39 °FLow clouds.7 mph91%30.32 "Hg3 mi
12:00 PM39 °FLow clouds.7 mph90%30.32 "Hg3 mi
11:00 AM38 °FLow clouds.7 mph92%30.33 "Hg3 mi
10:00 AM38 °FLow clouds.7 mph93%30.33 "Hg2 mi
9:00 AM38 °FLow clouds.5 mph93%30.33 "Hg2 mi
8:00 AM37 °FLow clouds.6 mph94%30.32 "Hg2 mi
7:00 AM37 °FLow clouds.7 mph95%30.32 "Hg3 mi
6:00 AM37 °FLow clouds.7 mph95%30.32 "Hg3 mi
5:00 AM37 °FLow clouds.7 mph95%30.33 "Hg3 mi
4:00 AM37 °FLow clouds.7 mph95%30.34 "Hg3 mi
3:00 AM36 °FPassing clouds.8 mph92%30.34 "Hg3 mi
2:00 AM38 °FPassing clouds.7 mph90%30.35 "Hg4 mi
Weather by CustomWeather, © 2014

See weather overviewHow to use our weather pages